Regional Weather Roundup
Issued by NWS Boston, MA

Current Version | Previous Version | Text Only | Print | Product List | Glossary Off
Versions: 1 2 3 4 5 6 7 8 9 10 11 12 13 14 15 16 17 18 19 20 21 22 23 24 25 26 27 28

000
ASUS41 KBOX 232010
RWRBOX

REGIONAL WEATHER ROUNDUP
NATIONAL WEATHER SERVICE TAUNTON MA
400 PM EDT SUN JUL 23 2017

NOTE:  "FAIR" INDICATES FEW OR NO CLOUDS BELOW 12,000 FEET WITH NO
SIGNIFICANT WEATHER AND/OR OBSTRUCTIONS TO VISIBILITY.

MAZALL-232100-
EASTERN MASSACHUSETTS

CITY           SKY/WX    TMP DP  RH WIND       PRES   REMARKS
BOSTON         CLOUDY    68  53  58 E12       29.89F
BEVERLY        SUNNY     73  54  51 E8        29.88F
LAWRENCE       MOSUNNY   75  49  39 E7        29.91S
BEDFORD        MOSUNNY   74  50  42 SE8       29.87S
BLUE HILL        N/A     71  52  50 E9        29.89S
NORWOOD        MOSUNNY   74  55  51 NE10      29.87F
MARSHFIELD     MOSUNNY   70  57  64 NE9       29.89S
PLYMOUTH       CLOUDY    70  52  52 NE12      29.89S
TAUNTON        MOSUNNY   75  46  35 E7        29.86F
NEW BEDFORD    MOSUNNY   73  55  53 NE9       29.86S
$$

MAZALL-232100-
CAPE COD AND THE ISLANDS

CITY           SKY/WX    TMP DP  RH WIND       PRES   REMARKS
FALMOUTH       CLOUDY    70  57  64 NE12      29.88S
HYANNIS        CLOUDY    72  57  59 NE9       29.86R
CHATHAM        MOSUNNY   71  57  61 NE13      29.88R
PROVINCETOWN   CLOUDY    68  56  65 NE8       29.90R
NANTUCKET      MOSUNNY   73  59  61 NE15      29.86R
MARTHAS VNYRD  SUNNY     75  54  47 NE14      29.87R
$$

MAZALL-232100-
CENTRAL AND WESTERN MASSACHUSETTS

CITY           SKY/WX    TMP DP  RH WIND       PRES   REMARKS
WORCESTER      PTSUNNY   72  48  42 E7        29.89F
FITCHBURG      CLOUDY    77  55  46 VRB5      29.88
ORANGE         CLOUDY    74  56  53 E6        29.87F
SPRINGFIELD    PTSUNNY   80  55  42 E6        29.83F
WESTFIELD      MOSUNNY   81  57  43 E5        29.84F
NORTH ADAMS    CLOUDY    75  59  57 E8        29.86S
PITTSFIELD     CLOUDY    75  59  57 S6        29.86F
$$

RIZALL-232100-
RHODE ISLAND

CITY           SKY/WX    TMP DP  RH WIND       PRES   REMARKS
PROVIDENCE     PTSUNNY   76  52  43 E10       29.87S
NEWPORT        MOSUNNY   74  55  51 E9        29.86F
BLOCK ISLAND   CLOUDY    71  60  68 NE9       29.87S
WESTERLY       CLOUDY    77  58  51 E7        29.87R
$$

CTZALL-232100-
CONNECTICUT

CITY           SKY/WX    TMP DP  RH WIND       PRES   REMARKS
BRADLEY INTL   PTSUNNY   80  59  48 S6        29.84F
HARTFORD       MOSUNNY   81  60  48 E6        29.82F
BRIDGEPORT     MOSUNNY   76  63  64 E14       29.83F
DANBURY        CLOUDY    78  66  66 SE8       29.84F
GROTON         CLOUDY    74  59  59 SE12      29.85S
NEW HAVEN      PTSUNNY   78  61  55 SE14G20   29.84F
CHESTER        FAIR      77  61  57 VRB6      29.85F
MERIDEN        CLOUDY    79  65  62 S7        29.83F
WILLIMANTIC    PTSUNNY   81  58  45 S8        29.85S
OXFORD         PTSUNNY   75  63  64 S9        29.85F
$$

MEZ002-015-021-024-NHZ003-005-008-011-012-014-VTZ005-008-232100-
NORTHERN NEW ENGLAND

CITY           SKY/WX    TMP DP  RH WIND       PRES   REMARKS
PORTLAND ME    PTSUNNY   70  44  39 S9        29.89S
BANGOR ME      PTSUNNY   74  44  34 NW5G16    29.87S
CONCORD NH     MOSUNNY   77  54  44 VRB5      29.87F
MANCHESTER NH  CLOUDY    74  50  42 SE8       29.87F
NASHUA NH      CLOUDY    76  53  44 SE7       29.88F
PORTSMOUTH NH  PTSUNNY   71  46  39 E6        29.88F
JAFFREY NH     CLOUDY    74  55  51 S6        29.90S
KEENE NH       CLOUDY    76  56  49 S6        29.87F
BURLINGTON VT  PTSUNNY   77  52  41 NW9       29.87S
MT. WASHINGTON PTSUNNY   52  43  71 W16G24      N/A
$$

NYZ052-076-232100-
EASTERN NEW YORK

CITY           SKY/WX    TMP DP  RH WIND       PRES   REMARKS
ALBANY         PTSUNNY   80  65  59 NE6       29.83F
NEW YORK CITY  CLOUDY    76  70  82 NE8       29.81F
$$

ANZALL-232100-
MARINE OBSERVATIONS

STATION/POSITION TIME  TEMP    WIND        PRES    VSBY  WAVE
                       AIR SEA DIR/SP/G                  HT/PER
                 (UTC) (F)     (DEG/KT/KT) (MB)    (MI)  (FT/S)
BOSTON BUOY      1950   66 68   40/ 10/ 10 1011.8F         4/ 7
BUZZARDS BAY     1900   69      40/ 17/ 18 1011.3F
NANTUCKET SOUND  1950      70              1010.7F         1/ 3
MASS BAY-STELLWA 1904   66 65   50/  8/ 10 1011.9S         4/ 6
ISLE OF SHOALS   1900   65      80/  4/  5 1012.5S
S OF BLOCK IS    1955      75                N/A           3/ 6
$$

......................KEY.........................
  SKY/WX - SKY CONDITION/PRESENT WEATHER
  TMP    - TEMPERATURE IN FAHRENHEIT
  DWPT   - DEWPOINT IN FAHRENHEIT
  RH     - RELATIVE HUMIDITY IN PERCENT
  WIND   - DIRECTION AND SPEED IN MPH
  PRES   - MEAN SEA LEVEL PRESSURE IN INCHES OF HG
  WCI    - WIND CHILL INDEX
  VSB    - VISIBILITY IN MILES
  HX     - HEAT INDEX
  TC     - TEMPERATURE IN CELSIUS
  VRB    - VARIABLE WIND DIRECTION
  N/A    - NOT AVAILABLE




USA.gov is the U.S. government's official web portal to all federal, state and local government web resources and services.